TimePST,TemperatureF,Dew PointF,Humidity,Sea Level PressureIn,VisibilityMPH,Wind Direction,Wind SpeedMPH,Gust SpeedMPH,PrecipitationIn,Events,Conditions,WindDirDegrees,DateUTC
12:52 AM,57.0,10.9,16,29.95,10.0,North,24.2,29.9,N/A,,Clear,350,2013-02-24 08:52:00
1:52 AM,55.0,7.0,15,29.97,10.0,North,21.9,31.1,N/A,,Clear,360,2013-02-24 09:52:00
2:52 AM,53.1,5.0,14,30.00,10.0,North,17.3,27.6,N/A,,Clear,10,2013-02-24 10:52:00
3:52 AM,51.1,6.1,16,30.02,10.0,North,16.1,-,N/A,,Clear,350,2013-02-24 11:52:00
4:52 AM,50.0,6.1,17,30.03,10.0,North,19.6,26.5,N/A,,Clear,350,2013-02-24 12:52:00
5:52 AM,48.9,7.0,18,30.05,10.0,North,17.3,-,N/A,,Clear,350,2013-02-24 13:52:00
6:52 AM,50.0,8.1,18,30.08,10.0,NNW,15.0,-,N/A,,Clear,340,2013-02-24 14:52:00
7:52 AM,54.0,8.1,16,30.12,10.0,NNW,19.6,24.2,N/A,,Clear,340,2013-02-24 15:52:00
8:52 AM,55.9,10.0,16,30.14,10.0,North,25.3,31.1,N/A,,Clear,360,2013-02-24 16:52:00
9:52 AM,57.9,10.0,15,30.14,10.0,North,29.9,40.3,N/A,,Clear,360,2013-02-24 17:52:00
10:52 AM,59.0,9.0,14,30.14,10.0,North,23.0,33.4,N/A,,Clear,10,2013-02-24 18:52:00
11:52 AM,61.0,7.0,12,30.12,9.0,North,26.5,42.6,N/A,,Clear,350,2013-02-24 19:52:00
12:52 PM,63.0,5.0,10,30.09,10.0,North,21.9,34.5,N/A,,Clear,10,2013-02-24 20:52:00
1:52 PM,63.0,6.1,11,30.07,10.0,North,23.0,28.8,N/A,,Clear,10,2013-02-24 21:52:00
2:52 PM,64.0,3.9,9,30.06,10.0,NNW,21.9,31.1,N/A,,Clear,340,2013-02-24 22:52:00
3:52 PM,64.0,3.9,9,30.07,10.0,North,24.2,31.1,N/A,,Clear,360,2013-02-24 23:52:00
4:52 PM,61.0,6.1,11,30.07,10.0,NNE,16.1,26.5,N/A,,Clear,20,2013-02-25 00:52:00
5:52 PM,57.9,8.1,14,30.09,10.0,NNE,10.4,-,N/A,,Clear,20,2013-02-25 01:52:00
6:52 PM,55.0,9.0,16,30.10,10.0,North,12.7,-,N/A,,Clear,360,2013-02-25 02:52:00
7:52 PM,53.1,9.0,17,30.13,10.0,NNW,10.4,-,N/A,,Clear,330,2013-02-25 03:52:00
8:52 PM,52.0,9.0,18,30.14,10.0,NW,9.2,-,N/A,,Clear,310,2013-02-25 04:52:00
9:52 PM,51.1,9.0,18,30.16,10.0,NNW,5.8,-,N/A,,Clear,330,2013-02-25 05:52:00
10:52 PM,48.0,10.0,22,30.16,10.0,NNW,6.9,-,N/A,,Clear,340,2013-02-25 06:52:00
11:52 PM,45.0,10.0,24,30.17,10.0,WNW,9.2,-,N/A,,Clear,300,2013-02-25 07:52:00